Cancun, Mexico

5:22 PM on October 16, 2018 (GMT +0000)
Cancun International

Weather History for MMUN - May, 2018

Change the Weather History Date:

Thursday, May 17, 2018

  Actual Average Record
Temperature  
Mean Temperature 80 °F -  
Max Temperature 86 °F 88 °F 93 °F (2003)
Min Temperature 75 °F 74 °F 68 °F (2007)
Cooling Degree Days 16    
Growing Degree Days 30 (Base 50)    
Moisture  
Dew Point 75 °F    
Average Humidity 83    
Maximum Humidity 100    
Minimum Humidity 66    
Precipitation  
Precipitation 0.00 in - - ()
Sea Level Pressure  
Sea Level Pressure 29.90 in    
Wind  
Wind Speed 6 mph ()    
Max Wind Speed 14 mph    
Max Gust Speed -    
Visibility 7.0 miles    
Events      
Averages and records for this station are not official NWS values.
T = Trace of Precipitation, MM = Missing Value Source: Averaged Metar Reports

Daily Weather History Graph

Daily Weather History Graph

Search for Another Location

Airport or City:

Astronomy

May. 17, 2018 Rise Set
Actual Time 6:08 AM EST 7:19 PM EST
Civil Twilight 5:45 AM EST 7:42 PM EST
Nautical Twilight 5:16 AM EST 8:11 PM EST
Astronomical Twilight 4:47 AM EST 8:40 PM EST
Moon 8:13 AM EST (5/17) 9:49 PM EST (5/17)
Length of Visible Light 13h 57m
Length of Day
13h 10m
Waxing Crescent, 7% of the Moon is Illuminated
May 17
Waxing Crescent
May 21
First Quarter
May 29
Full
Jun 6
Last Quarter
Jun 13
New

Hourly Weather History & Observations

Time (EST) Temp. Heat Index Dew Point Humidity Pressure Visibility Wind Dir Wind Speed Gust Speed Precip Events Conditions
12:45 AM 77.0 °F - 73.4 °F 89% 29.92 in 7.0 mi ESE 3.5 mph - N/A   Scattered Clouds
1:40 AM 77.0 °F - 73.4 °F 89% 29.91 in 7.0 mi East 3.5 mph - N/A   Scattered Clouds
2:40 AM 75.2 °F - 73.4 °F 94% 29.89 in 7.0 mi ESE 2.3 mph - N/A   Scattered Clouds
3:44 AM 77.0 °F - 73.4 °F 89% 29.88 in 7.0 mi ESE 6.9 mph - N/A   Scattered Clouds
4:42 AM 78.8 °F - 75.2 °F 89% 29.88 in 7.0 mi ESE 5.8 mph - N/A   Scattered Clouds
5:52 AM 77.0 °F - 77.0 °F 100% 29.89 in 6.0 mi East 9.2 mph - N/A   Scattered Clouds
6:43 AM 77.0 °F - 77.0 °F 100% 29.91 in 7.0 mi ESE 4.6 mph - N/A   Scattered Clouds
7:42 AM 80.6 °F 87.1 °F 77.0 °F 89% 29.91 in 7.0 mi East 5.8 mph - N/A   Scattered Clouds
8:44 AM 84.2 °F 92.3 °F 75.2 °F 74% 29.93 in 7.0 mi SE 11.5 mph - N/A   Scattered Clouds
9:40 AM 84.2 °F 92.3 °F 75.2 °F 74% 29.93 in 7.0 mi SE 12.7 mph - N/A   Scattered Clouds
10:46 AM 86.0 °F 95.1 °F 75.2 °F 70% 29.93 in 7.0 mi ESE 11.5 mph - N/A   Scattered Clouds
11:45 AM 86.0 °F 93.4 °F 73.4 °F 66% 29.91 in 7.0 mi SE 13.8 mph - N/A   Scattered Clouds
12:45 PM 84.2 °F 92.3 °F 75.2 °F 74% 29.92 in 7.0 mi East 10.4 mph - N/A   Mostly Cloudy
1:51 PM 86.0 °F 95.1 °F 75.2 °F 70% 29.91 in 7.0 mi ESE 9.2 mph - N/A   Mostly Cloudy
2:45 PM 84.2 °F 90.9 °F 73.4 °F 70% 29.88 in 7.0 mi ESE 9.2 mph - N/A   Mostly Cloudy
3:40 PM 80.6 °F 85.4 °F 73.4 °F 79% 29.88 in 7.0 mi East 6.9 mph - N/A   Mostly Cloudy
4:50 PM 82.4 °F 92.4 °F 78.8 °F 89% 29.86 in 7.0 mi ENE 3.5 mph - N/A   Mostly Cloudy
5:48 PM 82.4 °F 88.2 °F 73.4 °F 74% 29.87 in 7.0 mi ENE 4.6 mph - N/A   Mostly Cloudy
6:51 PM 82.4 °F 89.5 °F 75.2 °F 79% 29.88 in 7.0 mi East 8.1 mph - N/A   Scattered Clouds
7:51 PM 80.6 °F 86.2 °F 75.2 °F 84% 29.90 in 7.0 mi East 4.6 mph - N/A   Scattered Clouds
8:49 PM 78.8 °F - 75.2 °F 89% 29.91 in 7.0 mi East 4.6 mph - N/A   Scattered Clouds
9:47 PM 78.8 °F - 75.2 °F 89% 29.93 in 7.0 mi East 12.7 mph - N/A   Scattered Clouds
10:46 PM 78.8 °F - 73.4 °F 83% 29.94 in 7.0 mi East 12.7 mph - N/A   Scattered Clouds
11:45 PM 77.0 °F - 73.4 °F 89% 29.93 in 7.0 mi East 11.5 mph - N/A   Scattered Clouds